Columbia / Mount Pleasant, TN

10:33 AM CDT on May 25, 2017 (GMT -0500)
Maury County

Weather History for KMRC - May, 2013

Change the Weather History Date:

Monday, May 13, 2013

  Actual Average (KBNA) Record (KBNA)
Temperature  
Mean Temperature 60 °F -  
Max Temperature 71 °F 78 °F 93 °F (1962)
Min Temperature 48 °F 55 °F 39 °F (2013)
Degree Days  
Heating Degree Days 4    
Growing Degree Days 10 (Base 50)    
Moisture  
Dew Point 42 °F    
Average Humidity 55    
Maximum Humidity 100    
Minimum Humidity 27    
Precipitation  
Precipitation 0.00 in - - ()
Sea Level Pressure  
Sea Level Pressure 30.20 in    
Wind  
Wind Speed 2 mph (WSW)    
Max Wind Speed 8 mph    
Max Gust Speed -    
Visibility 9 miles    
Events      
Averages and records for this station are not official NWS values.
T = Trace of Precipitation, MM = Missing Value Source: NWS Daily Summary

Daily Weather History Graph

Daily Weather History Graph

Search for Another Location

Airport or City:

Trip Planner

Search our weather history database for the weather conditions in past years. The results will help you decide how hot, cold, wet, or windy it might be!

Date:

Astronomy

May. 13, 2013 Rise Set
Actual Time 5:45 AM CDT 7:45 PM CDT
Civil Twilight 5:17 AM CDT 8:13 PM CDT
Nautical Twilight 4:42 AM CDT 8:47 PM CDT
Astronomical Twilight 4:06 AM CDT 9:24 PM CDT
Moon 8:31 AM CDT (5/13) 10:54 PM CDT (5/13)
Length of Visible Light 14h 56m
Length of Day
13h 59m
Waxing Crescent, 12% of the Moon is Illuminated
May 13
Waxing Crescent
May 17
First Quarter
May 24
Full
May 31
Last Quarter
Jun 8
New

Hourly Weather History & Observations

Time (CDT) Temp. Dew Point Humidity Pressure Visibility Wind Dir Wind Speed Gust Speed Precip Events Conditions
12:35 AM - - N/A% 30.17 in 10.0 mi South 3.5 mph - N/A   Clear
12:55 AM - - N/A% 30.17 in 10.0 mi Calm Calm - N/A   Clear
1:15 AM - - N/A% 30.16 in 10.0 mi Calm Calm - N/A   Clear
1:35 AM - - N/A% 30.17 in 10.0 mi Calm Calm - N/A   Clear
1:55 AM - - N/A% 30.16 in 10.0 mi Calm Calm - N/A   Clear
2:15 AM - - N/A% 30.16 in 10.0 mi SW 3.5 mph - N/A   Clear
2:35 AM - - N/A% 30.17 in 10.0 mi Calm Calm - N/A   Clear
2:55 AM - - N/A% 30.17 in 10.0 mi Calm Calm - N/A   Clear
3:15 AM - - N/A% 30.17 in 10.0 mi Calm Calm - N/A   Clear
3:35 AM - - N/A% 30.18 in 10.0 mi Calm Calm - N/A   Clear
3:55 AM - - N/A% 30.18 in 9.0 mi Calm Calm - N/A   Clear
4:15 AM - - N/A% 30.18 in 8.0 mi Calm Calm - N/A   Clear
4:35 AM - - N/A% 30.18 in 5.0 mi Calm Calm - N/A   Clear
4:55 AM - - N/A% 30.19 in 0.2 mi Calm Calm - N/A   Mostly Cloudy
5:15 AM - - N/A% 30.19 in 0.2 mi Calm Calm - N/A   Overcast
5:35 AM - - N/A% 30.20 in 0.5 mi Calm Calm - N/A   Overcast
5:55 AM - - N/A% 30.20 in 0.2 mi Calm Calm - N/A   Overcast
6:15 AM - - N/A% 30.22 in 0.2 mi Calm Calm - N/A   Overcast
6:35 AM - - N/A% 30.22 in 1.8 mi Calm Calm - N/A   Mostly Cloudy
6:55 AM - - N/A% 30.22 in 6.0 mi Calm Calm - N/A   Clear
7:15 AM - - N/A% 30.23 in 1.8 mi Calm Calm - N/A   Clear
7:35 AM - - N/A% 30.24 in 1.8 mi Calm Calm - N/A   Clear
7:55 AM - - N/A% 30.24 in 5.0 mi Calm Calm - N/A   Clear
8:15 AM 50.0 °F 50.0 °F 100% 30.25 in 10.0 mi Calm Calm - N/A   Clear
8:35 AM 53.6 °F 53.6 °F 100% 30.26 in 10.0 mi Calm Calm - N/A   Clear
8:55 AM 55.4 °F 46.4 °F 72% 30.26 in 10.0 mi Calm Calm - N/A   Clear
9:15 AM 57.2 °F 44.6 °F 63% 30.26 in 10.0 mi Calm Calm - N/A   Clear
9:35 AM 60.8 °F 39.2 °F 45% 30.26 in 10.0 mi Calm Calm - N/A   Clear
9:55 AM 60.8 °F 35.6 °F 39% 30.27 in 10.0 mi SW 3.5 mph - N/A   Clear
10:15 AM 62.6 °F 35.6 °F 37% 30.27 in 10.0 mi Calm Calm - N/A   Clear
10:35 AM 64.4 °F 37.4 °F 37% 30.27 in 10.0 mi West 4.6 mph - N/A   Clear
10:55 AM 62.6 °F 37.4 °F 39% 30.27 in 10.0 mi SSW 5.8 mph - N/A   Clear
11:15 AM 64.4 °F 37.4 °F 37% 30.27 in 10.0 mi Variable 4.6 mph - N/A   Clear
11:35 AM 64.4 °F 39.2 °F 40% 30.26 in 10.0 mi WNW 3.5 mph - N/A   Clear
11:55 AM 64.4 °F 37.4 °F 37% 30.26 in 10.0 mi WNW 3.5 mph - N/A   Clear
12:15 PM 64.4 °F 35.6 °F 34% 30.25 in 10.0 mi Variable 3.5 mph - N/A   Clear
12:35 PM 66.2 °F 37.4 °F 35% 30.24 in 10.0 mi Variable 4.6 mph - N/A   Clear
12:55 PM 66.2 °F 37.4 °F 35% 30.23 in 10.0 mi Variable 3.5 mph - N/A   Clear
1:15 PM 68.0 °F 35.6 °F 30% 30.22 in 10.0 mi Variable 4.6 mph - N/A   Clear
1:35 PM 69.8 °F 35.6 °F 28% 30.22 in 10.0 mi Variable 6.9 mph - N/A   Clear
1:55 PM 69.8 °F 35.6 °F 28% 30.21 in 10.0 mi Variable 5.8 mph - N/A   Clear
2:15 PM 69.8 °F 37.4 °F 31% 30.20 in 10.0 mi Variable 4.6 mph - N/A   Clear
2:35 PM 69.8 °F 37.4 °F 31% 30.20 in 10.0 mi North 6.9 mph - N/A   Clear
3:35 PM 71.6 °F 35.6 °F 27% 30.17 in 10.0 mi West 8.1 mph - N/A   Clear
3:55 PM 71.6 °F 35.6 °F 27% 30.17 in 10.0 mi Variable 6.9 mph - N/A   Clear
4:15 PM 71.6 °F 35.6 °F 27% 30.17 in 10.0 mi Variable 6.9 mph - N/A   Clear
4:35 PM 71.6 °F 37.4 °F 29% 30.16 in 10.0 mi Variable 4.6 mph - N/A   Clear
4:55 PM 71.6 °F 39.2 °F 31% 30.16 in 10.0 mi NW 6.9 mph - N/A   Clear
5:15 PM 71.6 °F 39.2 °F 31% 30.16 in 10.0 mi Variable 4.6 mph - N/A   Clear
5:35 PM 71.6 °F 39.2 °F 31% 30.15 in 10.0 mi Variable 5.8 mph - N/A   Clear
5:55 PM 71.6 °F 39.2 °F 31% 30.14 in 10.0 mi West 3.5 mph - N/A   Clear
6:35 PM 69.8 °F 39.2 °F 33% 30.14 in 10.0 mi NNW 3.5 mph - N/A   Clear
7:15 PM 68.0 °F 41.0 °F 37% 30.15 in 10.0 mi Calm Calm - N/A   Clear
7:35 PM 66.2 °F 42.8 °F 43% 30.15 in 10.0 mi Calm Calm - N/A   Clear
7:55 PM 64.4 °F 42.8 °F 45% 30.15 in 10.0 mi Calm Calm - N/A   Clear
8:15 PM 59.0 °F 46.4 °F 63% 30.16 in 10.0 mi Calm Calm - N/A   Clear
8:35 PM 57.2 °F 48.2 °F 72% 30.16 in 10.0 mi Calm Calm - N/A   Clear
8:55 PM 55.4 °F 51.8 °F 88% 30.17 in 10.0 mi Calm Calm - N/A   Clear
9:15 PM 53.6 °F 53.6 °F 100% 30.18 in 10.0 mi SSW 3.5 mph - N/A   Clear
9:35 PM 53.6 °F 53.6 °F 100% 30.19 in 10.0 mi Calm Calm - N/A   Clear
9:55 PM 53.6 °F 53.6 °F 100% 30.19 in 10.0 mi South 3.5 mph - N/A   Clear
10:15 PM 51.8 °F 51.8 °F 100% 30.19 in 10.0 mi Calm Calm - N/A   Clear
10:35 PM 51.8 °F 51.8 °F 100% 30.19 in 10.0 mi SSW 3.5 mph - N/A   Clear
10:55 PM 51.8 °F 51.8 °F 100% 30.19 in 10.0 mi South 3.5 mph - N/A   Partly Cloudy
11:15 PM 50.0 °F 50.0 °F 100% 30.18 in 10.0 mi Calm Calm - N/A   Clear
11:35 PM 50.0 °F 50.0 °F 100% 30.18 in 10.0 mi South 3.5 mph - N/A   Clear
11:55 PM 48.2 °F 48.2 °F 100% 30.18 in 10.0 mi Calm Calm - N/A   Clear